This is the latest recevied weather packets stored in our database for station/object KQ4KX. If no packets are shown the sender has not sent any weather packets the latest 10 day(s).
| Time | Temp. | Humidity | Pressure | Rain* | Wind** | Luminosity | Snow |
|---|---|---|---|---|---|---|---|
| 1777987353 | 24.44° C | 79% | 1016.2 hPa | 0 mm | - | - | - |
| 1777987023 | 24.44° C | 79% | 1016.2 hPa | 0 mm | - | - | - |
| 1777986723 | 24.44° C | 80% | 1016.2 hPa | 0 mm | - | - | - |
| 1777986423 | 23.89° C | 80% | 1016.2 hPa | 0 mm | - | - | - |
| 1777986123 | 23.89° C | 81% | 1016.2 hPa | 0 mm | - | - | - |
| 1777985793 | 23.89° C | 81% | 1016.1 hPa | 0 mm | - | - | - |
| 1777985494 | 23.33° C | 83% | 1016.2 hPa | 0 mm | - | - | - |
| 1777984863 | 22.78° C | 85% | 1016.3 hPa | 0 mm | - | - | - |
| 1777984533 | 22.22° C | 86% | 1016.3 hPa | 0 mm | - | - | - |
| 1777984233 | 22.22° C | 86% | 1016.3 hPa | 0 mm | - | - | - |
| 1777983273 | 21.67° C | 88% | 1016.3 hPa | 0 mm | - | - | - |
| 1777982973 | 21.67° C | 89% | 1016.3 hPa | 0 mm | - | - | - |
| 1777982673 | 21.67° C | 89% | 1016.2 hPa | 0 mm | - | - | - |
| 1777981743 | 20.56° C | 91% | 1016 hPa | 0 mm | - | - | - |
| 1777981443 | 20.56° C | 91% | 1016 hPa | 0 mm | - | - | - |
| 1777980812 | 20.56° C | 92% | 1015.7 hPa | 0 mm | - | - | - |
| 1777980183 | 20° C | 93% | 1015.5 hPa | 0 mm | - | - | - |
| 1777979223 | 19.44° C | 94% | 1015.3 hPa | 0 mm | - | - | - |
| 1777978923 | 19.44° C | 94% | 1015.4 hPa | 0 mm | - | - | - |
| 1777978623 | 19.44° C | 94% | 1015.3 hPa | 0 mm | - | - | - |
| 1777978323 | 19.44° C | 94% | 1015.2 hPa | 0 mm | - | - | - |
| 1777978023 | 19.44° C | 95% | 1015.1 hPa | 0 mm | - | - | - |
| 1777977423 | 19.44° C | 94% | 1015.1 hPa | 0 mm | - | - | - |
| 1777977094 | 19.44° C | 94% | 1015.1 hPa | 0 mm | - | - | - |
| 1777976793 | 19.44° C | 94% | 1015 hPa | 0 mm | - | - | - |
* Rain latest hour (hover to see other rain measurements)
** Current wind speed in m/s (hover to see current wind gust speed)